Tracking 20040 objects as of 19-Nov-2019
Live streaming from Space Station
objects crossing your sky now

THOR 3

Track THOR 3 now!
THOR 3 is classified as:


NORAD ID: 25358
Int'l Code: 1998-035A
Perigee: 36,194.3 km
Apogee: 36,212.7 km
Inclination: 7.4 °
Period: 1,457.1 minutes
Semi major axis: 42574 km
RCS: 23.5207 m2 (large)
Launch date: June 10, 1998
Source: Norway (NOR)
Launch site: AIR FORCE EASTERN TEST RANGE (AFETR)

14 Ku-band; Nordic region, central and eastern Europe.
aabbcc
Your satellite tracking list
Your tracking list is empty




NASA's NSSDC Master Catalog

Two Line Element Set (TLE):
1 25358U 98035A   19321.76996476 -.00000055 +00000-0 +00000-0 0  9999
2 25358 007.3625 054.8967 0002159 183.0620 015.2186 00.98827718078585
Source of the keplerian elements: AFSPC